Regional Weather Roundup
Issued by NWS

Home | Current Version | Previous Version | Graphics & Text | Print | Product List | Glossary On
Versions: 1 2 3 4 5 6 7 8 9 10 11 12 13 14 15 16 17 18 19 20 21 22 23 24 25 26 27 28 29 30 31 32 33 34 35 36 37 38 39 40 41 42 43 44 45 46 47 48 49 50
000
ASUS43 KBIS 040110
RWRND

NORTH DAKOTA REGIONAL WEATHER ROUNDUP
NATIONAL WEATHER SERVICE BISMARCK ND
800 PM CDT TUE MAY 03 2016

NOTE: "FAIR" INDICATES FEW OR NO CLOUDS BELOW 12,000 FEET WITH NO
SIGNIFICANT WEATHER AND/OR OBSTRUCTIONS TO VISIBILITY.


NDZ001>003-009>011-017-040200-
NORTHWEST NORTH DAKOTA

CITY           SKY/WX    TMP DP  RH WIND       PRES   REMARKS
WILLISTON      SUNNY     77  39  25 NE8       30.03S
MINOT          CLEAR     73  24  16 N14       30.01S
MINOT AFB      CLEAR     69  28  21 N12       30.00S
$$

NDZ018>021-031>035-040>046-040200-
SOUTHWEST NORTH DAKOTA

CITY           SKY/WX    TMP DP  RH WIND       PRES   REMARKS
BISMARCK       CLEAR     70  32  24 N14       29.99R
DICKINSON      CLEAR     69  39  33 NE12      30.03R
GARRISON         N/A     71  30  21 NE10G20   30.01R
HETTINGER ARPT CLEAR     71  38  29 N13       30.05S
$$

NDZ004>008-012>016-024-026-027-054-040200-
NORTHEAST NORTH DAKOTA

CITY           SKY/WX    TMP DP  RH WIND       PRES   REMARKS
GRAND FORKS    CLEAR     60  33  36 N20       29.94R
GRND FRKS AFB  CLEAR     60  31  33 NE17G25   29.95R
DEVILS LAKE    CLEAR     61  25  25 N18       30.00R
$$

NDZ022-023-025-028>030-036>039-047>053-040200-
SOUTHEAST NORTH DAKOTA

CITY           SKY/WX    TMP DP  RH WIND       PRES   REMARKS
FARGO          CLEAR     64  26  23 N25G33    29.90R
JAMESTOWN      CLEAR     63  25  23 N20       29.95R
$$




USA.gov is the U.S. government's official web portal to all federal, state and local government web resources and services.